Content
SEND FEEDBACK

Daily
Averages
Monthly
Summary
India

DELHI, INDIA


Home > Asia > India
Elevation: 708 feet     Latitude: 28 35N     Longitude: 077 12E

WEATHER
 
SELECT A DAY
Number of Records: 218,275;   Date Range: 7/1/96 - 7/27/14
 
SHARE

PRINT THIS DATA

[ ← Previous Day ]
WEATHER ALMANAC - FEBRUARY 13, 2013
[ Next Day → ]
[ °C ]   °F
Weather ElementAverageHighLow
Temperature61.4 °F75.2 °F (2:00 pm)50 °F (6:30 am)
Dewpoint52.5 °F60.8 °F (8:00 pm)46.4 °F (12:30 pm)
Humidity78 %100 % (3:30 am)36 % (2:00 pm)
Barometer30.00 in30.06 in (9:30 am)29.95 in (5:30 pm)
Wind Speed6.1 mph9.2 mph (9:30 am)
Weather ElementAverage
Visibility1.3 mi
Wind DirectionW (265.6 °)

Weather ElementTotal
Precipitation---
Heating Degree Days2.4 (Base 65)
Growing Degree Days12.6 (Base 50)
Averaged from 39 records on February 13, 2013
WEATHER CONDITIONS BREAKOUT
WIND DIRECTION BREAKOUT
WEATHER BY HOUR - FEBRUARY 13, 2013
[ °C ]   °F
Local TimeTemperatureDewpointHumidityBarometerVisibilityWind DirectionWind SpeedGust SpeedPrecipitationEventsConditions
12:30 AM57.2 °F55.4 °F94 %30.01 in0.7 miWest (260°)4.6 mphMist
1:00 AM55.4 °F53.6 °F94 %30.01 in0.7 miWest (260°)4.6 mphMist
1:30 AM53.6 °F51.8 °F94 %30.01 in0.7 miWest (260°)3.5 mphMist
2:00 AM53.6 °F51.8 °F94 %30.01 in0.7 miWest (260°)5.8 mphMist
2:30 AM53.6 °F51.8 °F94 %30.01 in0.7 miWest (260°)5.8 mphMist
3:00 AM51.8 °F50.0 °F94 %29.98 in0.8 miWest (270°)5.8 mphMist
3:30 AM51.8 °F51.8 °F100 %29.98 in0.8 miWNW (290°)5.8 mphMist
4:00 AM51.8 °F51.8 °F100 %29.98 in0.9 miWNW (290°)5.8 mphMist
5:00 AM51.8 °F51.8 °F100 %29.98 in0.9 miWSW (250°)5.8 mphMist
5:30 AM51.8 °F51.8 °F100 %29.98 in0.7 miWest (260°)5.8 mphMist
6:00 AM51.8 °F51.8 °F100 %30.01 in0.6 miWest (260°)5.8 mphMist
6:30 AM50.0 °F50.0 °F100 %30.01 in0.6 miWest (270°)5.8 mphFogShallow Fog
7:30 AM50.0 °F50.0 °F100 %30.04 in0.4 miWSW (240°)4.6 mphFogShallow Fog
8:00 AM50.0 °F50.0 °F100 %30.04 in0.4 miSSW (210°)5.8 mphFogShallow Fog
8:30 AM51.8 °F51.8 °F100 %30.04 in0.4 miWest (270°)8.1 mphFogShallow Fog
9:30 AM55.4 °F53.6 °F94 %30.06 in0.9 miWest (270°)9.2 mphMist
10:30 AM60.8 °F55.4 °F82 %30.06 in1.1 miWest (270°)8.1 mphMist
11:00 AM64.4 °F53.6 °F68 %30.06 in1.4 miWNW (290°)6.9 mphHaze
11:30 AM66.2 °F50.0 °F56 %30.06 in1.6 miWNW (290°)8.1 mphHaze
12:00 PM68.0 °F48.2 °F49 %30.06 in1.6 miWNW (290°)6.9 mphHaze
12:30 PM69.8 °F46.4 °F43 %30.04 in1.7 miWNW (300°)6.9 mphHaze
1:30 PM73.4 °F46.4 °F38 %30.01 inWNW (290°)9.2 mphHaze
2:00 PM75.2 °F46.4 °F36 %30.01 in2.2 miWNW (290°)9.2 mphHaze
2:30 PM75.2 °F46.4 °F36 %30.01 in2.5 miWNW (290°)9.2 mphHaze
3:00 PM75.2 °F48.2 °F38 %29.98 in2.5 miWNW (300°)9.2 mphHaze
3:30 PM75.2 °F48.2 °F38 %29.98 in2.8 miWNW (300°)9.2 mphHaze
4:30 PM73.4 °F48.2 °F41 %29.98 in3.1 miNW (310°)8.1 mphHaze
5:00 PM73.4 °F48.2 °F41 %29.98 in3.1 miWest (280°)9.2 mphHaze
5:30 PM71.6 °F50.0 °F46 %29.95 in2.5 miWNW (290°)6.9 mphHaze
6:00 PM69.8 °F51.8 °F53 %29.95 in2.2 miWNW (300°)6.9 mphHaze
6:30 PM69.8 °F51.8 °F53 %29.95 inWNW (290°)4.6 mphHaze
7:00 PM64.4 °F57.2 °F77 %29.95 inWest (270°)5.8 mphHaze
8:00 PM62.6 °F60.8 °F94 %29.98 in1.3 miWest (270°)3.5 mphPartly Cloudy
8:30 PM62.6 °F60.8 °F94 %29.98 in1.1 miWest (280°)4.6 mphPartly Cloudy
9:30 PM60.8 °F60.8 °F100 %29.98 in0.9 miWSW (250°)2.3 mphPartly Cloudy
10:00 PM60.8 °F60.8 °F100 %29.98 in0.9 miCalmPartly Cloudy
10:30 PM60.8 °F60.8 °F100 %29.98 in0.7 miWSW (240°)3.5 mphPartly Cloudy
11:00 PM59.0 °F59.0 °F100 %29.98 in0.6 miWSW (240°)3.5 mphPartly Cloudy
11:30 PM59.0 °F59.0 °F100 %29.98 in0.6 miWSW (250°)4.6 mphScattered Clouds
Hourly data recorded from VIDP, located miles away from Delhi, India







STORIES FROM OUR PARTNERS